CW3577 Weather Reports


Display with metric or nautical units.
time (UTC)temp
F
wind
direction
speed
MPH
gust
MPH
rain 1hr
in
rain 24hr
in
rain mn
in
humidity
%
barometer
mb
20260904091540 65 172 0.0 0.0 0.00 0.05 0.00 95 1010.2
20260904090015 65 172 0.0 1.0 0.00 0.09 0.00 95 1010.2
20260904084531 65 172 0.0 1.0 0.00 0.09 0.00 95 1010.1
20260904083056 65 172 0.0 1.0 0.00 0.09 0.00 95 1010.2
20260904081506 65 173 0.0 2.0 0.00 0.09 0.00 95 1010.3
20260904080030 65 173 0.0 2.0 0.00 0.11 0.00 95 1010.5
20260904074609 65 172 0.0 1.0 0.00 0.11 0.00 95 1010.5
20260904073025 65 172 0.0 0.0 0.00 0.11 0.00 95 1010.5
20260904071554 65 172 0.0 1.0 0.00 0.11 0.00 95 1010.5
20260904070003 65 172 0.0 1.0 0.00 0.11 0.00 95 1010.5
20260904064601 65 172 0.0 2.0 0.00 0.11 0.00 95 1010.6
20260904063105 65 173 0.0 1.0 0.00 0.11 0.00 95 1010.8
20260904061542 65 173 0.0 2.0 0.00 0.11 0.00 95 1010.8
20260904060117 65 173 0.0 2.0 0.00 0.11 0.00 95 1011.0
20260904054524 65 169 0.0 5.0 0.00 0.11 0.00 95 1011.3
20260904053117 66 125 1.0 3.0 0.00 0.11 0.00 95 1011.6
20260904051610 66 111 1.0 2.0 0.00 0.11 0.00 94 1011.6
20260904050034 66 111 1.0 4.0 0.00 0.11 0.00 94 1011.6
20260904044611 66 117 0.0 2.0 0.00 0.11 0.00 94 1011.7
20260904043033 66 96 1.0 4.0 0.00 0.11 0.00 94 1011.7
20260904041502 66 115 0.0 2.0 0.00 0.11 0.00 94 1011.9
20260904040036 66 91 1.0 6.0 0.00 0.11 0.11 94 1011.9
20260904034557 66 107 0.0 4.0 0.00 0.11 0.11 94 1011.8
20260904033027 66 159 0.0 1.0 0.00 0.11 0.11 94 1012.0
20260904031603 66 159 0.0 1.0 0.00 0.11 0.11 93 1011.9
20260904030023 66 159 0.0 1.0 0.00 0.11 0.11 93 1012.0
20260904024615 67 159 0.0 1.0 0.00 0.11 0.11 93 1011.9
20260904023008 67 159 0.0 1.0 0.00 0.11 0.11 93 1012.1
20260904021558 67 159 0.0 1.0 0.00 0.11 0.11 93 1012.2
20260904020002 67 159 0.0 1.0 0.00 0.11 0.11 93 1012.2
20260904014539 67 159 0.0 1.0 0.00 0.11 0.11 92 1012.4
20260904013101 68 159 0.0 0.0 0.00 0.11 0.11 92 1012.4
20260904011535 68 159 0.0 1.0 0.00 0.11 0.11 92 1012.6
20260904010059 68 159 0.0 0.0 0.00 0.11 0.11 91 1012.5
20260904004516 69 159 0.0 1.0 0.00 0.11 0.11 91 1012.3
20260904003052 69 159 0.0 1.0 0.00 0.11 0.11 91 1012.1
20260904001501 69 159 0.0 1.0 0.00 0.11 0.11 90 1011.9
20260904000111 70 159 1.0 2.0 0.00 0.11 0.11 90 1011.6
20260903234601 70 159 0.0 1.0 0.00 0.11 0.11 89 1011.8
20260903233032 71 159 0.0 1.0 0.00 0.11 0.11 88 1011.5
20260903231547 72 159 0.0 2.0 0.00 0.11 0.11 86 1011.5
20260903230015 73 159 0.0 1.0 0.00 0.11 0.11 85 1011.9
20260903224543 74 159 0.0 3.0 0.00 0.11 0.11 83 1011.5
20260903223130 75 159 0.0 3.0 0.00 0.11 0.11 81 1011.7
20260903221502 76 159 0.0 1.0 0.00 0.11 0.11 78 1012.2
20260903220048 76 160 0.0 3.0 0.00 0.11 0.11 76 1012.1
20260903214606 77 156 0.0 3.0 0.00 0.11 0.11 75 1012.1
20260903213058 77 157 1.0 3.0 0.00 0.11 0.11 78 1012.0
20260903211502 77 157 0.0 2.0 0.00 0.11 0.11 78 1012.1
20260903210050 76 159 2.0 4.0 0.00 0.11 0.11 76 1012.1
20260903204601 75 153 2.0 4.0 0.00 0.11 0.11 78 1012.0
20260903203036 76 128 0.0 4.0 0.00 0.11 0.11 76 1012.2
20260903201503 75 140 1.0 3.0 0.00 0.11 0.11 77 1012.2
20260903200026 75 147 1.0 3.0 0.00 0.11 0.11 77 1012.3
20260903194600 75 139 0.0 3.0 0.00 0.11 0.11 78 1012.6
20260903193030 74 132 1.0 4.0 0.00 0.11 0.11 79 1012.8
20260903191605 73 94 0.0 4.0 0.00 0.11 0.11 80 1012.9
20260903190022 73 55 1.0 5.0 0.00 0.11 0.11 79 1012.9
20260903184505 74 26 0.0 4.0 0.00 0.11 0.11 78 1013.2
20260903183028 72 26 1.0 4.0 0.00 0.11 0.11 80 1013.4
20260903181601 72 47 3.0 5.0 0.00 0.11 0.11 81 1013.4
20260903180024 72 324 2.0 4.0 0.00 0.11 0.11 81 1013.6
20260903174505 71 317 2.0 4.0 0.00 0.11 0.11 81 1013.7
20260903173025 71 271 2.0 6.0 0.00 0.11 0.11 81 1014.0
20260903171607 71 355 1.0 6.0 0.00 0.11 0.11 80 1014.0
20260903170017 73 259 2.0 5.0 0.00 0.11 0.11 79 1013.7
20260903164550 70 17 2.0 4.0 0.00 0.11 0.11 83 1013.7
20260903163103 69 75 2.0 5.0 0.00 0.11 0.11 83 1013.9
20260903161545 70 9 3.0 6.0 0.00 0.11 0.11 83 1013.9
20260903160058 69 9 1.0 5.0 0.00 0.11 0.11 85 1013.9
20260903154505 68 355 1.0 5.0 0.00 0.11 0.11 88 1014.1
20260903153026 67 5 0.0 3.0 0.00 0.11 0.11 89 1014.3
20260903151602 66 355 0.0 2.0 0.00 0.11 0.11 88 1014.5
20260903150020 66 360 1.0 3.0 0.00 0.11 0.11 89 1014.7
20260903144504 66 355 1.0 3.0 0.00 0.11 0.11 90 1014.8
20260903143024 65 348 0.0 2.0 0.00 0.11 0.11 91 1014.7
20260903141609 65 309 1.0 2.0 0.00 0.11 0.11 91 1014.7
20260903140016 64 222 0.0 3.0 0.00 0.11 0.11 91 1015.2
20260903134606 64 222 0.0 2.0 0.00 0.11 0.11 92 1015.3
20260903133015 64 222 0.0 3.0 0.00 0.11 0.11 93 1015.1
20260903131608 63 204 0.0 2.0 0.00 0.11 0.11 92 1015.0
20260903130003 63 204 0.0 1.0 0.00 0.11 0.11 93 1015.2
20260903124544 63 204 0.0 2.0 0.00 0.11 0.11 93 1015.3
20260903123105 63 204 0.0 2.0 0.00 0.11 0.11 93 1015.5
20260903121553 63 178 0.0 2.0 0.00 0.11 0.11 94 1015.6
20260903120050 62 194 0.0 2.0 0.00 0.11 0.11 93 1015.7
20260903114505 62 194 0.0 2.0 0.01 0.11 0.11 93 1016.0
20260903113041 62 194 0.0 0.0 0.01 0.11 0.11 93 1016.1
20260903111509 62 194 0.0 1.0 0.01 0.11 0.11 93 1016.0
20260903110043 62 194 0.0 1.0 0.01 0.11 0.11 93 1016.0
20260903104537 62 194 0.0 2.0 0.01 0.10 0.10 93 1016.1
20260903103047 62 195 0.0 1.0 0.02 0.10 0.10 92 1016.0
20260903101601 62 195 0.0 1.0 0.04 0.10 0.10 92 1016.1
20260903100013 62 195 0.0 2.0 0.05 0.10 0.10 92 1015.9
20260903094539 62 195 0.0 1.0 0.04 0.09 0.09 91 1016.1
20260903093107 62 195 0.0 1.0 0.04 0.08 0.08 91 1016.3